This is the latest recevied weather packets stored in our database for station/object N3TJJ-2. If no packets are shown the sender has not sent any weather packets the latest 10 day(s).
| Time | Temp. | Humidity | Pressure | Rain* | Wind** | Luminosity | Snow |
|---|---|---|---|---|---|---|---|
| 1788190610 | 25.56° C | 75% | 1021.4 hPa | 0 mm | - | - | - |
| 1788190246 | 26.11° C | 74% | 1021.5 hPa | 0 mm | - | - | - |
| 1788189902 | 26.11° C | 75% | 1021.6 hPa | 0 mm | - | - | - |
| 1788189531 | 26.67° C | 75% | 1021.6 hPa | 0 mm | - | - | - |
| 1788189169 | 25.56° C | 74% | 1021.8 hPa | 0 mm | - | - | - |
| 1788188806 | 25° C | 73% | 1021.9 hPa | 0 mm | - | - | - |
| 1788188448 | 23.33° C | 69% | 1021.9 hPa | 0 mm | - | - | - |
| 1788188088 | 23.33° C | 67% | 1021.9 hPa | 0 mm | - | - | - |
| 1788187736 | 23.33° C | 60% | 1021.9 hPa | 0 mm | - | - | - |
| 1788187365 | 23.89° C | 41% | 1022 hPa | 0 mm | - | - | - |
| 1788187006 | 24.44° C | 25% | 1022 hPa | 0 mm | - | - | - |
| 1788186649 | 23.89° C | 19% | 1022 hPa | 0 mm | - | - | - |
| 1788186303 | 23.33° C | 19% | 1022.1 hPa | 0 mm | - | - | - |
| 1788185934 | 22.22° C | 19% | 1022.2 hPa | 0 mm | - | - | - |
| 1788185566 | 22.22° C | 20% | 1022.2 hPa | 0 mm | - | - | - |
| 1788185209 | 21.67° C | 20% | 1022.1 hPa | 0 mm | - | - | - |
| 1788184876 | 21.67° C | 21% | 1022.1 hPa | 0 mm | - | - | - |
| 1788184494 | 21.67° C | 21% | 1022.1 hPa | 0 mm | - | - | - |
| 1788184136 | 21.11° C | 21% | 1022.1 hPa | 0 mm | - | - | - |
| 1788183766 | 21.11° C | 21% | 1022 hPa | 0 mm | - | - | - |
| 1788183406 | 21.11° C | 21% | 1022.1 hPa | 0 mm | - | - | - |
| 1788183051 | 21.67° C | 21% | 1022.1 hPa | 0 mm | - | - | - |
| 1788182685 | 21.67° C | 20% | 1021.9 hPa | 0 mm | - | - | - |
| 1788182428 | 21.67° C | 20% | 1022 hPa | 0 mm | - | - | - |
| 1788181991 | 21.11° C | 21% | 1021.9 hPa | 0 mm | - | - | - |
* Rain latest hour (hover to see other rain measurements)
** Current wind speed in m/s (hover to see current wind gust speed)